• In Hungary
  • List of Countries
  • For 7 days
  • Water Temperature
  • Satellite Maps
  • Weather Map
  • News
  • Weather Widgets
  • user-avatar
    Login

    Hourly Weather Murovanye Kurilovcy

    Today, 20 September, Thursday

    Time Temperature Precipitation Wind Pressure Humidity
    00:00 +18°C° 0 mm 1 mps 744 mmHg 59%
    01:00 +18°C° 0 mm 1 mps 744 mmHg 60%
    02:00 +16°C° 0 mm 1 mps 743 mmHg 60%
    03:00 +16°C° 0 mm 1 mps 743 mmHg 61%
    04:00 +15°C° 0 mm 1 mps 743 mmHg 62%
    05:00 +15°C° 0 mm 1 mps 743 mmHg 63%
    06:00 +16°C° 0 mm 1 mps 743 mmHg 61%
    07:00 +18°C° 0 mm 1 mps 744 mmHg 59%
    08:00 +18°C° 0 mm 2 mps 744 mmHg 55%
    09:00 +20°C° 0 mm 2 mps 744 mmHg 51%
    10:00 +23°C° 0 mm 2 mps 744 mmHg 46%
    11:00 +25°C° 0 mm 2 mps 744 mmHg 41%
    12:00 +26°C° 0 mm 2 mps 744 mmHg 39%
    13:00 +27°C° 0 mm 2 mps 744 mmHg 36%
    14:00 +27°C° 0 mm 2 mps 743 mmHg 34%
    15:00 +27°C° 0 mm 2 mps 743 mmHg 36%
    16:00 +27°C° 0 mm 1 mps 743 mmHg 39%
    17:00 +26°C° 0 mm 1 mps 743 mmHg 41%
    18:00 +24°C° 0 mm 1 mps 743 mmHg 43%
    19:00 +22°C° 0 mm 1 mps 743 mmHg 45%
    20:00 +20°C° 0 mm 1 mps 743 mmHg 47%
    21:00 +20°C° 0 mm 1 mps 743 mmHg 48%
    22:00 +19°C° 0 mm 1 mps 743 mmHg 49%
    23:00 +19°C° 0 mm 1 mps 742 mmHg 50%

    Tomorrow, 21 September, Friday

    Time Temperature Precipitation Wind Pressure Humidity
    00:00 +18°C° 0 mm 1 mps 742 mmHg 50%
    01:00 +18°C° 0 mm 1 mps 742 mmHg 51%
    02:00 +18°C° 0 mm 1 mps 742 mmHg 51%
    03:00 +16°C° 0 mm 1 mps 742 mmHg 52%
    04:00 +16°C° 0 mm 1 mps 742 mmHg 52%
    05:00 +16°C° 0 mm 1 mps 742 mmHg 53%
    06:00 +18°C° 0 mm 1 mps 742 mmHg 52%
    07:00 +18°C° 0 mm 2 mps 742 mmHg 51%
    08:00 +19°C° 0 mm 2 mps 743 mmHg 50%
    09:00 +21°C° 0 mm 2 mps 743 mmHg 45%
    10:00 +24°C° 0 mm 3 mps 743 mmHg 41%
    11:00 +26°C° 0 mm 4 mps 743 mmHg 36%
    12:00 +27°C° 0 mm 4 mps 742 mmHg 35%
    13:00 +28°C° 0 mm 4 mps 742 mmHg 33%
    14:00 +28°C° 0 mm 4 mps 742 mmHg 32%
    15:00 +27°C° 0 mm 4 mps 741 mmHg 35%
    16:00 +27°C° 0 mm 3 mps 741 mmHg 38%
    17:00 +26°C° 0 mm 3 mps 740 mmHg 41%
    18:00 +24°C° 0 mm 3 mps 740 mmHg 43%
    19:00 +22°C° 0 mm 3 mps 740 mmHg 45%
    20:00 +20°C° 0 mm 3 mps 740 mmHg 47%
    21:00 +19°C° 0 mm 3 mps 740 mmHg 48%
    22:00 +19°C° 0 mm 3 mps 740 mmHg 48%
    23:00 +18°C° 0 mm 3 mps 740 mmHg 49%

    Day after tomorrow, 22 September, Saturday

    Time Temperature Precipitation Wind Pressure Humidity
    00:00 +18°C° 0 mm 3 mps 740 mmHg 50%
    01:00 +18°C° 0 mm 3 mps 740 mmHg 51%
    02:00 +17°C° 0 mm 3 mps 740 mmHg 52%
    03:00 +17°C° 0 mm 3 mps 739 mmHg 53%
    04:00 +16°C° 0 mm 3 mps 739 mmHg 54%
    05:00 +16°C° 0 mm 2 mps 739 mmHg 56%
    06:00 +17°C° 0 mm 2 mps 739 mmHg 55%
    07:00 +18°C° 0 mm 2 mps 740 mmHg 54%
    08:00 +19°C° 0 mm 2 mps 740 mmHg 53%
    09:00 +21°C° 0 mm 3 mps 740 mmHg 49%
    10:00 +24°C° 0 mm 3 mps 740 mmHg 46%
    11:00 +26°C° 0 mm 4 mps 740 mmHg 42%
    12:00 +26°C° 0 mm 4 mps 740 mmHg 44%
    13:00 +26°C° 0 mm 5 mps 740 mmHg 46%
    14:00 +25°C° 0 mm 5 mps 740 mmHg 48%
    15:00 +23°C° 0 mm 5 mps 740 mmHg 51%
    16:00 +22°C° 0 mm 5 mps 740 mmHg 55%
    17:00 +20°C° 0 mm 5 mps 740 mmHg 58%
    18:00 +17°C° 0.2 mm 6 mps 740 mmHg 62%
    19:00 +15°C° 0.2 mm 6 mps 740 mmHg 65%
    20:00 +12°C° 0.2 mm 7 mps 741 mmHg 68%
    21:00 +11°C° 1.8 mm 6 mps 741 mmHg 74%
    22:00 +10°C° 1.8 mm 5 mps 742 mmHg 80%
    23:00 +9°C° 1.8 mm 5 mps 742 mmHg 86%

    23 September, Sunday

    Time Temperature Precipitation Wind Pressure Humidity
    00:00 +10°C° 0.1 mm 4 mps 742 mmHg 87%
    01:00 +9°C° 0.1 mm 3 mps 743 mmHg 89%
    02:00 +9°C° 0.1 mm 3 mps 743 mmHg 91%
    03:00 +9°C° 0 mm 3 mps 743 mmHg 90%
    04:00 +8°C° 0 mm 2 mps 743 mmHg 89%
    05:00 +8°C° 0 mm 2 mps 743 mmHg 89%
    06:00 +9°C° 0 mm 2 mps 743 mmHg 83%
    07:00 +10°C° 0 mm 3 mps 743 mmHg 78%
    08:00 +11°C° 0 mm 3 mps 743 mmHg 72%
    09:00 +13°C° 0 mm 3 mps 743 mmHg 64%
    10:00 +15°C° 0 mm 4 mps 743 mmHg 56%
    11:00 +17°C° 0 mm 4 mps 743 mmHg 47%
    12:00 +18°C° 0 mm 4 mps 743 mmHg 44%
    13:00 +19°C° 0 mm 4 mps 742 mmHg 42%
    14:00 +19°C° 0 mm 4 mps 742 mmHg 39%
    15:00 +19°C° 0 mm 3 mps 742 mmHg 42%
    16:00 +19°C° 0 mm 3 mps 741 mmHg 44%
    17:00 +18°C° 0 mm 2 mps 741 mmHg 47%
    18:00 +17°C° 0 mm 2 mps 741 mmHg 48%
    19:00 +16°C° 0 mm 2 mps 741 mmHg 50%
    20:00 +13°C° 0 mm 3 mps 740 mmHg 51%
    21:00 +13°C° 0 mm 4 mps 740 mmHg 49%
    22:00 +14°C° 0 mm 4 mps 740 mmHg 48%
    23:00 +14°C° 0 mm 5 mps 739 mmHg 46%

    24 September, Monday

    Time Temperature Precipitation Wind Pressure Humidity
    00:00 +14°C° 0 mm 5 mps 738 mmHg 45%
    01:00 +14°C° 0 mm 6 mps 737 mmHg 43%
    02:00 +15°C° 0 mm 6 mps 736 mmHg 42%
    03:00 +14°C° 0 mm 6 mps 736 mmHg 44%
    04:00 +14°C° 0 mm 6 mps 735 mmHg 45%
    05:00 +14°C° 0 mm 6 mps 734 mmHg 47%
    06:00 +14°C° 0.1 mm 6 mps 733 mmHg 51%
    07:00 +14°C° 0.1 mm 6 mps 733 mmHg 56%
    08:00 +15°C° 0.1 mm 6 mps 733 mmHg 61%
    09:00 +15°C° 0.3 mm 6 mps 732 mmHg 62%
    10:00 +16°C° 0.3 mm 7 mps 732 mmHg 64%
    11:00 +17°C° 0.3 mm 7 mps 732 mmHg 65%
    12:00 +17°C° 0.9 mm 7 mps 732 mmHg 70%
    13:00 +16°C° 0.9 mm 8 mps 732 mmHg 74%
    14:00 +15°C° 0.9 mm 8 mps 733 mmHg 79%
    15:00 +13°C° 0.2 mm 8 mps 734 mmHg 78%
    16:00 +12°C° 0.2 mm 8 mps 735 mmHg 78%
    17:00 +11°C° 0.2 mm 8 mps 736 mmHg 78%
    18:00 +10°C° 0.1 mm 8 mps 737 mmHg 77%
    19:00 +10°C° 0.1 mm 8 mps 738 mmHg 76%
    20:00 +9°C° 0.1 mm 8 mps 739 mmHg 75%
    21:00 +9°C° 0 mm 7 mps 739 mmHg 75%
    22:00 +8°C° 0 mm 7 mps 740 mmHg 75%
    23:00 +8°C° 0 mm 7 mps 740 mmHg 74%

    25 September, Tuesday

    Time Temperature Precipitation Wind Pressure Humidity
    00:00 +6°C° 0 mm 7 mps 740 mmHg 76%
    01:00 +7°C° 0 mm 6 mps 741 mmHg 77%
    02:00 +7°C° 0 mm 6 mps 741 mmHg 78%
    03:00 +5°C° 0 mm 6 mps 742 mmHg 78%
    04:00 +5°C° 0 mm 7 mps 742 mmHg 77%
    05:00 +5°C° 0 mm 7 mps 743 mmHg 76%
    06:00 +5°C° 0 mm 7 mps 744 mmHg 73%
    07:00 +5°C° 0 mm 8 mps 744 mmHg 70%
    08:00 +6°C° 0 mm 8 mps 745 mmHg 66%
    09:00 +7°C° 0 mm 8 mps 745 mmHg 59%
    10:00 +9°C° 0 mm 8 mps 745 mmHg 52%
    11:00 +10°C° 0 mm 8 mps 746 mmHg 45%
    12:00 +11°C° 0 mm 7 mps 746 mmHg 43%
    13:00 +11°C° 0 mm 7 mps 746 mmHg 42%
    14:00 +12°C° 0 mm 7 mps 746 mmHg 40%
    15:00 +11°C° 0 mm 6 mps 746 mmHg 42%
    16:00 +11°C° 0 mm 6 mps 746 mmHg 44%
    17:00 +10°C° 0 mm 5 mps 746 mmHg 47%
    18:00 +10°C° 0 mm 4 mps 746 mmHg 51%
    19:00 +9°C° 0 mm 3 mps 746 mmHg 55%
    20:00 +7°C° 0 mm 3 mps 746 mmHg 59%
    21:00 +7°C° 0 mm 3 mps 746 mmHg 62%
    22:00 +5°C° 0 mm 3 mps 746 mmHg 64%
    23:00 +5°C° 0 mm 3 mps 746 mmHg 67%
    Show more